Weather History for Volk, WI

Change the Weather History Date:

Monday, December 9, 2013

  Actual Average Record
Temperature  
Mean Temperature 4 °F -  
Max Temperature 12 °F 33 °F 44 °F (1998)
Min Temperature -4 °F 21 °F -4 °F (2013)
Degree Days  
Heating Degree Days 61    
Moisture  
Dew Point 3 °F    
Average Humidity 82    
Maximum Humidity 92    
Minimum Humidity 57    
Precipitation  
Precipitation 0.00 in - - ()
Snow  
Snow 0.00 in - - ()
Snow Depth 2.00 in    
Sea Level Pressure  
Sea Level Pressure 30.02 in    
Wind  
Wind Speed 7 mph (West)    
Max Wind Speed 24 mph    
Max Gust Speed 32 mph    
Visibility 9 miles    
Events Snow    
Averages and records for this station are not official NWS values.
T = Trace of Precipitation, MM = Missing Value Source: NWS Daily Summary

Daily Weather History Graph

Daily Weather History Graph

Search for Another Location

Airport:

Trip Planner

Search our weather history database for the weather conditions in past years. The results will help you decide how hot, cold, wet, or windy it might be!

Date:

Astronomy

Dec. 09, 2013 Rise Set
Actual Time 7:23 AM CST 4:23 PM CST
Civil Twilight 6:51 AM CST 4:55 PM CST
Nautical Twilight 6:14 AM CST 5:32 PM CST
Astronomical Twilight 5:39 AM CST 6:07 PM CST
Moon 12:05 PM CST (12/9) No Moon Set
Length of Visible Light 10h 04m
Length of Day
8h 59m
Waxing Crescent, 51% of the Moon is Illuminated
Dec 9
Waxing Crescent
Dec 17
Full
Dec 25
Last Quarter
Jan 1
New
Jan 7
First Quarter

Hourly Weather History & Observations

Time (CST) Temp. Windchill Dew Point Humidity Pressure Visibility Wind Dir Wind Speed Gust Speed Precip Events Conditions
12:03 AM 10.4 °F 4.0 °F 8.6 °F 92% 29.96 in 7.0 mi WNW 3.5 mph - N/A Snow Light Snow
12:13 AM 10.4 °F 4.0 °F 8.6 °F 92% 29.96 in 8.0 mi NW 3.5 mph - N/A Snow Light Snow
12:23 AM 10.4 °F 4.0 °F 8.6 °F 92% 29.95 in 10.0 mi WNW 3.5 mph - N/A Snow Light Snow
12:33 AM 10.4 °F 4.0 °F 8.6 °F 92% 29.95 in 9.0 mi WNW 3.5 mph - N/A Snow Light Snow
12:43 AM 10.4 °F 2.2 °F 8.6 °F 92% 29.94 in 10.0 mi WNW 4.6 mph - N/A Snow Light Snow
12:58 AM 10.4 °F 4.0 °F 8.1 °F 90% 30.01 in 9.0 mi WNW 3.5 mph - 0.00 in Snow Light Snow
1:03 AM 10.4 °F 2.2 °F 8.6 °F 92% 29.93 in 7.0 mi WNW 4.6 mph - N/A Snow Light Snow
1:48 AM 10.4 °F 2.2 °F 8.6 °F 92% 29.93 in 9.0 mi West 4.6 mph - N/A Snow Light Snow
1:50 AM 10.4 °F 2.2 °F 8.6 °F 92% 29.93 in 10.0 mi West 4.6 mph - N/A   Overcast
1:56 AM 10.4 °F 2.2 °F 8.6 °F 92% 29.93 in 9.0 mi West 4.6 mph - N/A Snow Light Snow
1:58 AM 10.4 °F 0.8 °F 8.6 °F 92% 30.00 in 8.0 mi West 5.8 mph - 0.00 in Snow Light Snow
2:03 AM 10.4 °F 0.8 °F 8.6 °F 92% 29.93 in 5.0 mi West 5.8 mph - N/A Snow Light Snow
2:08 AM 10.4 °F 2.2 °F 8.6 °F 92% 29.93 in 4.0 mi West 4.6 mph - N/A Snow Light Snow
2:13 AM 10.4 °F 2.2 °F 8.6 °F 92% 29.93 in 7.0 mi West 4.6 mph - N/A Snow Light Snow
2:18 AM 10.4 °F 0.8 °F 8.6 °F 92% 29.93 in 9.0 mi West 5.8 mph - N/A Snow Light Snow
2:20 AM 10.4 °F 0.8 °F 8.6 °F 92% 29.93 in 10.0 mi West 5.8 mph - N/A   Overcast
2:58 AM 10.4 °F 0.8 °F 7.5 °F 88% 30.01 in 10.0 mi West 5.8 mph - 0.00 in   Mostly Cloudy
3:23 AM 10.4 °F -0.4 °F 6.8 °F 85% 29.94 in 10.0 mi West 6.9 mph - N/A   Overcast
3:28 AM 10.4 °F -0.4 °F 6.8 °F 85% 29.94 in 10.0 mi West 6.9 mph - N/A   Overcast
3:58 AM 9.3 °F -1.7 °F 6.8 °F 89% 30.01 in 10.0 mi West 6.9 mph - N/A   Overcast
4:58 AM 10.2 °F 0.6 °F 7.2 °F 87% 30.00 in 10.0 mi West 5.8 mph - N/A   Overcast
5:01 AM 10.4 °F 0.8 °F 6.8 °F 85% 29.93 in 10.0 mi West 5.8 mph - N/A Snow Light Snow
5:24 AM 10.4 °F -1.5 °F 6.8 °F 85% 29.93 in 10.0 mi West 8.1 mph - N/A   Mostly Cloudy
5:58 AM 10.2 °F -2.7 °F 7.0 °F 87% 30.00 in 10.0 mi West 9.2 mph - 0.00 in   Mostly Cloudy
6:35 AM 8.6 °F -4.7 °F 6.8 °F 92% 29.94 in 10.0 mi West 9.2 mph - N/A   Partly Cloudy
6:58 AM 8.6 °F -4.7 °F 5.0 °F 85% 30.01 in 10.0 mi West 9.2 mph - N/A   Partly Cloudy
7:58 AM 8.6 °F -3.7 °F 5.0 °F 85% 30.04 in 10.0 mi West 8.1 mph - N/A   Partly Cloudy
8:58 AM 12.2 °F -1.8 °F 6.8 °F 79% 30.05 in 10.0 mi West 11.5 mph - N/A   Scattered Clouds
9:58 AM 12.2 °F -2.5 °F 5.0 °F 73% 30.04 in 10.0 mi West 12.7 mph - N/A   Partly Cloudy
10:58 AM 10.4 °F -7.7 °F 3.2 °F 73% 30.04 in 10.0 mi West 18.4 mph 24.2 mph N/A   Scattered Clouds
12:15 PM 10.4 °F -9.9 °F -2.2 °F 57% 29.98 in 10.0 mi West 24.2 mph 32.2 mph N/A   Partly Cloudy
12:58 PM 8.6 °F -9.5 °F -2.2 °F 62% 30.07 in 10.0 mi West 17.3 mph 24.2 mph N/A   Partly Cloudy
1:58 PM 6.8 °F -13.8 °F -4.0 °F 61% 30.09 in 10.0 mi West 21.9 mph 27.6 mph N/A   Partly Cloudy
2:58 PM 5.0 °F -14.7 °F -5.8 °F 61% 30.12 in 10.0 mi West 18.4 mph 27.6 mph N/A   Partly Cloudy
3:58 PM 3.2 °F -15.3 °F -7.6 °F 61% 30.15 in 10.0 mi WSW 15.0 mph - N/A   Partly Cloudy
4:58 PM 1.4 °F -14.5 °F -7.6 °F 66% 30.17 in 10.0 mi West 10.4 mph 18.4 mph N/A   Clear
5:58 PM -0.4 °F -15.7 °F -9.4 °F 66% 30.19 in 10.0 mi WSW 9.2 mph - N/A   Clear
6:58 PM -0.4 °F -13.4 °F -9.4 °F 66% 30.20 in 10.0 mi WSW 6.9 mph - N/A   Clear
7:58 PM -2.2 °F -16.8 °F -9.4 °F 71% 30.20 in 10.0 mi WSW 8.1 mph - N/A   Clear
8:58 PM -2.2 °F -14.2 °F -9.4 °F 71% 30.18 in 10.0 mi SW 5.8 mph - N/A   Clear
9:58 PM -2.2 °F -14.2 °F -9.4 °F 71% 30.17 in 10.0 mi WSW 5.8 mph - N/A   Clear
10:58 PM -4.0 °F -12.4 °F -9.4 °F 78% 30.16 in 10.0 mi SSW 3.5 mph - N/A   Clear
11:58 PM -3.8 °F -17.5 °F -9.6 °F 76% 30.13 in 10.0 mi South 6.9 mph - N/A   Clear